NOZ75 ENBR-LKPR

Flight info

Callsign NOZ75
Flight time 1h 45m
Altitude 35000
Route TINIG Z326 ULMUG L617 LALIL L996 INRER M44 KOGIM M725 GOLOP
Aircraft B738/M-SDFGRWY/C

Departure

Time 2026-05-06 18:45
Airport Bergen Airport, Flesland (ENBR)

Arrival

Time 2026-05-06 20:30
Airport Václav Havel Airport Prague (LKPR)
Time Latitude Longitude Altitude Speed Heading
2026-05-06 18:07 60.28811 5.22696 174 ft 0 kts 10°
2026-05-06 18:32 60.28805 5.22694 174 ft 2 kts 10°
2026-05-06 18:32 60.28791 5.22689 174 ft 2 kts 10°
2026-05-06 18:32 60.28782 5.22685 173 ft 1 kts 10°
2026-05-06 18:33 60.28767 5.22687 173 ft 2 kts 334°
2026-05-06 18:33 60.28755 5.22705 173 ft 2 kts 303°
2026-05-06 18:33 60.28750 5.22734 173 ft 2 kts 271°
2026-05-06 18:33 60.28750 5.22748 173 ft 1 kts 254°
2026-05-06 18:34 60.28751 5.22758 173 ft 0 kts 258°
2026-05-06 18:34 60.28751 5.22757 173 ft 0 kts 258°
2026-05-06 18:36 60.28747 5.22716 173 ft 6 kts 258°
2026-05-06 18:37 60.28738 5.22610 172 ft 6 kts 260°
2026-05-06 18:37 60.28736 5.22582 172 ft 0 kts 261°
2026-05-06 18:38 60.28736 5.22581 172 ft 0 kts 261°
2026-05-06 18:38 60.28738 5.22511 171 ft 10 kts 297°
2026-05-06 18:38 60.28814 5.22450 171 ft 13 kts 350°
2026-05-06 18:39 60.28913 5.22417 173 ft 15 kts 352°
2026-05-06 18:39 60.29030 5.22388 173 ft 13 kts 352°
2026-05-06 18:39 60.29075 5.22265 170 ft 13 kts 263°
2026-05-06 18:40 60.29148 5.22208 167 ft 15 kts 353°
2026-05-06 18:40 60.29298 5.22158 161 ft 24 kts 349°
2026-05-06 18:40 60.29480 5.22097 154 ft 27 kts 351°
2026-05-06 18:40 60.29644 5.22041 150 ft 20 kts 351°
2026-05-06 18:41 60.29761 5.22003 150 ft 13 kts 351°
2026-05-06 18:41 60.29841 5.21972 150 ft 9 kts 349°
2026-05-06 18:41 60.29905 5.21948 150 ft 9 kts 349°
2026-05-06 18:41 60.29973 5.21924 151 ft 9 kts 349°
2026-05-06 18:42 60.30033 5.21905 153 ft 8 kts 351°
2026-05-06 18:42 60.30085 5.21890 155 ft 7 kts 351°
2026-05-06 18:42 60.30152 5.21868 157 ft 12 kts 349°
2026-05-06 18:42 60.30265 5.21828 162 ft 20 kts 349°
2026-05-06 18:43 60.30401 5.21781 169 ft 14 kts 344°
2026-05-06 18:43 60.30440 5.21688 172 ft 5 kts 263°
2026-05-06 18:43 60.30436 5.21630 172 ft 4 kts 261°
2026-05-06 18:43 60.30423 5.21525 173 ft 11 kts 245°
2026-05-06 18:44 60.30314 5.21487 168 ft 24 kts 169°
2026-05-06 18:44 60.29941 5.21613 152 ft 93 kts 170°
2026-05-06 18:44 60.29063 5.21908 164 ft 159 kts 171°
2026-05-06 18:44 60.27902 5.22288 627 ft 176 kts 171°
2026-05-06 18:45 60.26673 5.22710 1305 ft 186 kts 169°
2026-05-06 18:45 60.25326 5.23208 1784 ft 208 kts 170°
2026-05-06 18:45 60.23805 5.23691 2149 ft 232 kts 171°
2026-05-06 18:45 60.22182 5.24225 2824 ft 243 kts 170°
2026-05-06 18:46 60.20482 5.24789 3456 ft 257 kts 170°
2026-05-06 18:46 60.18708 5.25379 4268 ft 264 kts 170°
2026-05-06 18:46 60.16896 5.25983 5122 ft 268 kts 170°
2026-05-06 18:46 60.15051 5.26597 5978 ft 272 kts 170°
2026-05-06 18:47 60.13192 5.27216 6817 ft 275 kts 170°
2026-05-06 18:47 60.11379 5.28375 7604 ft 279 kts 148°
2026-05-06 18:47 60.10050 5.31147 8375 ft 282 kts 116°
2026-05-06 18:47 60.09665 5.34936 9125 ft 285 kts 84°
2026-05-06 18:48 60.10088 5.38784 9917 ft 287 kts 75°
2026-05-06 18:48 60.10683 5.42659 10645 ft 292 kts 64°
2026-05-06 18:48 60.11675 5.46249 11123 ft 306 kts 63°
2026-05-06 18:48 60.12272 5.50501 11245 ft 332 kts 88°
2026-05-06 18:49 60.11753 5.55090 11821 ft 342 kts 115°
2026-05-06 18:49 60.10574 5.59263 12578 ft 348 kts 118°
2026-05-06 18:49 60.09582 5.63696 13346 ft 354 kts 108°
2026-05-06 18:49 60.08888 5.68414 14144 ft 358 kts 105°
2026-05-06 18:50 60.08249 5.73283 14942 ft 362 kts 104°
2026-05-06 18:50 60.07636 5.78170 15725 ft 367 kts 104°
2026-05-06 18:50 60.07039 5.83158 16491 ft 371 kts 103°
2026-05-06 18:50 60.06455 5.88156 17230 ft 375 kts 103°
2026-05-06 18:51 60.05860 5.93307 17960 ft 379 kts 103°
2026-05-06 18:51 60.05271 5.98436 18660 ft 383 kts 103°
2026-05-06 18:51 60.04680 6.03597 19337 ft 387 kts 103°
2026-05-06 18:51 60.04076 6.08869 20005 ft 391 kts 103°
2026-05-06 18:52 60.03464 6.14212 20655 ft 395 kts 103°
2026-05-06 18:52 60.02846 6.19578 21284 ft 398 kts 103°
2026-05-06 18:52 60.02223 6.24979 21892 ft 402 kts 103°
2026-05-06 18:52 60.01553 6.30451 22486 ft 406 kts 105°
2026-05-06 18:53 60.00671 6.35787 23052 ft 409 kts 111°
2026-05-06 18:53 59.99508 6.40991 23617 ft 413 kts 115°
2026-05-06 18:53 59.98266 6.46195 24162 ft 416 kts 115°
2026-05-06 18:53 59.97058 6.51393 24686 ft 420 kts 114°
2026-05-06 18:54 59.95818 6.56729 25206 ft 423 kts 114°
2026-05-06 18:54 59.94578 6.61985 25701 ft 426 kts 115°
2026-05-06 18:54 59.93293 6.67376 26193 ft 429 kts 116°
2026-05-06 18:54 59.92012 6.72728 26665 ft 432 kts 116°
2026-05-06 18:55 59.90701 6.78182 27129 ft 436 kts 116°
2026-05-06 18:55 59.89381 6.83650 27580 ft 439 kts 116°
2026-05-06 18:55 59.88066 6.89081 28013 ft 441 kts 116°
2026-05-06 18:55 59.86718 6.94632 28442 ft 444 kts 116°
2026-05-06 18:56 59.85384 7.00102 28850 ft 447 kts 116°
2026-05-06 18:56 59.84008 7.05732 29258 ft 450 kts 116°
2026-05-06 18:56 59.82634 7.11335 29651 ft 453 kts 116°
2026-05-06 18:56 59.81265 7.16907 30029 ft 455 kts 116°
2026-05-06 18:57 59.79863 7.22592 30393 ft 458 kts 116°
2026-05-06 18:57 59.78465 7.28248 30873 ft 457 kts 116°
2026-05-06 18:57 59.77074 7.33862 31450 ft 454 kts 116°
2026-05-06 18:57 59.75685 7.39452 31911 ft 453 kts 116°
2026-05-06 18:58 59.74297 7.45022 32364 ft 452 kts 116°
2026-05-06 18:58 59.72901 7.50614 32800 ft 451 kts 116°
2026-05-06 18:58 59.71514 7.56150 33213 ft 450 kts 116°
2026-05-06 18:58 59.70109 7.61750 33614 ft 449 kts 116°
2026-05-06 18:59 59.68717 7.67280 33971 ft 449 kts 117°
2026-05-06 18:59 59.67328 7.72785 34354 ft 448 kts 117°
2026-05-06 18:59 59.65946 7.78249 34727 ft 447 kts 117°
2026-05-06 18:59 59.64557 7.83726 34997 ft 447 kts 117°
2026-05-06 19:00 59.63151 7.89256 34997 ft 451 kts 117°
2026-05-06 19:00 59.60341 8.00270 35001 ft 451 kts 117°
2026-05-06 19:01 59.57493 8.11375 35000 ft 463 kts 117°
2026-05-06 19:01 59.54542 8.22827 34999 ft 471 kts 117°
2026-05-06 19:02 59.51563 8.34323 34999 ft 470 kts 117°
2026-05-06 19:02 59.48599 8.45706 35000 ft 468 kts 117°
2026-05-06 19:03 59.45614 8.57112 35000 ft 469 kts 117°
2026-05-06 19:03 59.42622 8.68485 34999 ft 469 kts 117°
2026-05-06 19:04 59.39629 8.79807 34999 ft 469 kts 117°
2026-05-06 19:04 59.36627 8.91102 34999 ft 469 kts 117°
2026-05-06 19:05 59.33592 9.02467 35000 ft 469 kts 117°
2026-05-06 19:05 59.30571 9.13723 35000 ft 469 kts 117°
2026-05-06 19:06 59.27539 9.24960 35000 ft 469 kts 117°
2026-05-06 19:06 59.24484 9.36231 35000 ft 469 kts 117°
2026-05-06 19:07 59.21443 9.47391 35000 ft 469 kts 117°
2026-05-06 19:07 59.18315 9.58533 34999 ft 469 kts 121°
2026-05-06 19:08 59.14538 9.68949 34999 ft 469 kts 126°
2026-05-06 19:08 59.10773 9.79250 34999 ft 469 kts 125°
2026-05-06 19:09 59.07014 9.89572 34999 ft 469 kts 126°
2026-05-06 19:09 59.03253 9.99833 34999 ft 469 kts 125°
2026-05-06 19:10 58.99471 10.10123 35000 ft 469 kts 125°
2026-05-06 19:10 58.95676 10.20400 35000 ft 469 kts 125°
2026-05-06 19:11 58.91871 10.30664 35000 ft 469 kts 125°
2026-05-06 19:11 58.88081 10.40841 34999 ft 469 kts 125°
2026-05-06 19:12 58.84261 10.51058 34999 ft 469 kts 125°
2026-05-06 19:12 58.80220 10.60894 34999 ft 469 kts 133°
2026-05-06 19:13 58.75384 10.69305 35000 ft 469 kts 139°
2026-05-06 19:13 58.70513 10.77554 35000 ft 469 kts 139°
2026-05-06 19:14 58.65645 10.85775 35000 ft 469 kts 139°
2026-05-06 19:14 58.60720 10.93996 35000 ft 469 kts 139°
2026-05-06 19:15 58.55795 11.02173 35000 ft 469 kts 139°
2026-05-06 19:15 58.50896 11.10265 35000 ft 469 kts 139°
2026-05-06 19:16 58.45941 11.18413 34999 ft 469 kts 139°
2026-05-06 19:16 58.41003 11.26500 35000 ft 469 kts 139°
2026-05-06 19:17 58.36069 11.34545 35000 ft 469 kts 139°
2026-05-06 19:17 58.31105 11.42609 35000 ft 469 kts 139°
2026-05-06 19:18 58.26155 11.50619 35000 ft 469 kts 139°
2026-05-06 19:18 58.21193 11.58618 35000 ft 469 kts 139°
2026-05-06 19:19 58.16209 11.66510 34999 ft 469 kts 143°
2026-05-06 19:19 58.10889 11.73544 34999 ft 469 kts 146°
2026-05-06 19:20 58.05544 11.80586 34999 ft 469 kts 145°
2026-05-06 19:20 58.00213 11.87657 34999 ft 469 kts 145°
2026-05-06 19:21 57.94875 11.94711 34999 ft 469 kts 145°
2026-05-06 19:21 57.89540 12.01747 35000 ft 469 kts 145°
2026-05-06 19:22 57.84239 12.08718 35000 ft 469 kts 145°
2026-05-06 19:22 57.78766 12.15318 34999 ft 469 kts 153°
2026-05-06 19:23 57.72584 12.18924 35001 ft 469 kts 171°
2026-05-06 19:23 57.66130 12.20474 34999 ft 469 kts 172°
2026-05-06 19:24 57.59676 12.22204 34999 ft 469 kts 172°
2026-05-06 19:24 57.53221 12.23877 34999 ft 469 kts 172°
2026-05-06 19:25 57.46776 12.25528 34999 ft 469 kts 172°
2026-05-06 19:25 57.40348 12.27165 34999 ft 469 kts 172°
2026-05-06 19:26 57.33873 12.28802 35000 ft 469 kts 172°
2026-05-06 19:26 57.27414 12.30429 35000 ft 469 kts 172°
2026-05-06 19:27 57.21009 12.32035 35000 ft 469 kts 172°
2026-05-06 19:27 57.14554 12.33647 35000 ft 469 kts 172°
2026-05-06 19:28 57.08092 12.35257 35000 ft 469 kts 172°
2026-05-06 19:28 57.01668 12.36854 34999 ft 469 kts 172°
2026-05-06 19:29 56.95226 12.38449 35000 ft 469 kts 172°
2026-05-06 19:29 56.89682 12.39817 34999 ft 469 kts 172°
2026-05-06 19:30 56.82629 12.41551 34999 ft 469 kts 172°
2026-05-06 19:30 56.76160 12.43135 34999 ft 469 kts 172°
2026-05-06 19:31 56.69722 12.44707 35000 ft 469 kts 172°
2026-05-06 19:31 56.60046 12.47059 34999 ft 469 kts 172°
2026-05-06 19:32 56.53604 12.48619 35000 ft 469 kts 172°
2026-05-06 19:32 56.47139 12.50178 35000 ft 469 kts 172°
2026-05-06 19:33 56.40687 12.51729 35000 ft 469 kts 172°
2026-05-06 19:33 56.34279 12.53260 35000 ft 469 kts 172°
2026-05-06 19:34 56.27835 12.54795 35000 ft 469 kts 172°
2026-05-06 19:34 56.21374 12.56650 34998 ft 469 kts 165°
2026-05-06 19:35 56.18354 12.58582 34999 ft 468 kts 154°
2026-05-06 19:35 56.15572 12.61583 35001 ft 468 kts 142°
2026-05-06 19:35 56.10945 12.69801 35000 ft 469 kts 130°
2026-05-06 19:36 56.06430 12.78200 34997 ft 468 kts 145°
2026-05-06 19:36 56.00711 12.83656 34998 ft 469 kts 159°
2026-05-06 19:37 55.94479 12.86924 34999 ft 469 kts 165°
2026-05-06 19:37 55.88220 12.90143 34999 ft 469 kts 163°
2026-05-06 19:38 55.81986 12.93372 34999 ft 469 kts 164°
2026-05-06 19:38 55.75753 12.96565 34999 ft 469 kts 164°
2026-05-06 19:39 55.69517 12.99752 34999 ft 469 kts 164°
2026-05-06 19:39 55.63253 13.02940 34999 ft 469 kts 164°
2026-05-06 19:40 55.56998 13.06112 34999 ft 469 kts 164°
2026-05-06 19:40 55.50736 13.09276 34999 ft 469 kts 164°
2026-05-06 19:41 55.44476 13.12429 35000 ft 469 kts 164°
2026-05-06 19:41 55.38217 13.15570 35000 ft 469 kts 164°
2026-05-06 19:42 55.31977 13.18692 35000 ft 469 kts 164°
2026-05-06 19:42 55.25711 13.21816 35000 ft 469 kts 164°
2026-05-06 19:43 55.19481 13.24912 35000 ft 469 kts 164°
2026-05-06 19:43 55.13190 13.28029 35000 ft 469 kts 164°
2026-05-06 19:44 55.06949 13.31110 35000 ft 469 kts 164°
2026-05-06 19:44 55.00694 13.34188 35000 ft 469 kts 164°
2026-05-06 19:45 54.94428 13.37262 35000 ft 469 kts 164°
2026-05-06 19:45 54.88104 13.39767 35000 ft 469 kts 171°
2026-05-06 19:46 54.81667 13.41333 34999 ft 469 kts 171°
2026-05-06 19:46 54.75225 13.43066 34999 ft 469 kts 171°
2026-05-06 19:47 54.68817 13.44771 34999 ft 469 kts 171°
2026-05-06 19:47 54.62397 13.46481 34999 ft 469 kts 171°
2026-05-06 19:48 54.55954 13.48195 34999 ft 469 kts 171°
2026-05-06 19:48 54.49526 13.49899 34999 ft 469 kts 171°
2026-05-06 19:49 54.43090 13.51530 35000 ft 469 kts 171°
2026-05-06 19:49 54.36679 13.53139 35000 ft 469 kts 171°
2026-05-06 19:50 54.30240 13.54762 35000 ft 469 kts 171°
2026-05-06 19:50 54.23815 13.56449 35000 ft 469 kts 171°
2026-05-06 19:51 54.17358 13.58145 35000 ft 469 kts 171°
2026-05-06 19:51 54.10924 13.59813 35000 ft 469 kts 171°
2026-05-06 19:52 54.04499 13.61475 35000 ft 469 kts 171°
2026-05-06 19:52 53.98068 13.63133 35000 ft 469 kts 171°
2026-05-06 19:53 53.91616 13.64803 34999 ft 469 kts 170°
2026-05-06 19:53 53.85275 13.67052 35000 ft 469 kts 167°
2026-05-06 19:54 53.78908 13.69422 35000 ft 469 kts 168°
2026-05-06 19:54 53.72577 13.71700 35000 ft 469 kts 168°
2026-05-06 19:55 53.66201 13.73987 35000 ft 469 kts 168°
2026-05-06 19:55 53.59835 13.76269 35000 ft 469 kts 168°
2026-05-06 19:56 53.53441 13.78551 35000 ft 469 kts 168°
2026-05-06 19:56 53.47121 13.80797 35000 ft 469 kts 168°
2026-05-06 19:57 53.40719 13.83065 34999 ft 469 kts 168°
2026-05-06 19:57 53.34379 13.85304 35000 ft 469 kts 168°
2026-05-06 19:58 53.28005 13.87547 34999 ft 469 kts 168°
2026-05-06 19:58 53.21623 13.89786 34999 ft 469 kts 168°
2026-05-06 19:59 53.15219 13.91805 34999 ft 469 kts 173°
2026-05-06 19:59 53.08757 13.92916 34999 ft 469 kts 174°
2026-05-06 20:00 53.02301 13.94130 35000 ft 469 kts 173°
2026-05-06 20:00 52.95821 13.95360 35000 ft 469 kts 173°
2026-05-06 20:01 52.89388 13.96592 34999 ft 469 kts 173°
2026-05-06 20:01 52.83534 13.97849 35000 ft 469 kts 172°
2026-05-06 20:02 52.77091 13.99231 34999 ft 469 kts 173°
2026-05-06 20:02 52.70639 14.00606 35000 ft 469 kts 173°
2026-05-06 20:03 52.64188 14.01978 34999 ft 469 kts 173°
2026-05-06 20:03 52.57729 14.03346 35000 ft 469 kts 173°
2026-05-06 20:04 52.51271 14.04707 34999 ft 469 kts 173°
2026-05-06 20:04 52.44838 14.06058 35000 ft 469 kts 173°
2026-05-06 20:05 52.38377 14.07412 35000 ft 469 kts 173°
2026-05-06 20:05 52.31937 14.08757 35000 ft 469 kts 173°
2026-05-06 20:06 52.25462 14.10113 35000 ft 469 kts 172°
2026-05-06 20:06 52.19000 14.11460 35000 ft 469 kts 173°
2026-05-06 20:07 52.12547 14.12791 35000 ft 469 kts 173°
2026-05-06 20:07 52.06106 14.14118 34999 ft 469 kts 173°
2026-05-06 20:08 51.99643 14.15446 35000 ft 469 kts 173°
2026-05-06 20:08 51.93192 14.16767 35000 ft 469 kts 173°
2026-05-06 20:09 51.86734 14.18085 34999 ft 469 kts 173°
2026-05-06 20:09 51.80268 14.19398 34999 ft 469 kts 173°
2026-05-06 20:10 51.73887 14.20694 34998 ft 451 kts 173°
2026-05-06 20:10 51.70839 14.21313 34974 ft 439 kts 173°
2026-05-06 20:10 51.67845 14.21919 34729 ft 438 kts 173°
2026-05-06 20:11 51.64836 14.22528 34481 ft 439 kts 173°
2026-05-06 20:11 51.61773 14.23147 34229 ft 440 kts 173°
2026-05-06 20:11 51.58756 14.23756 33906 ft 441 kts 173°
2026-05-06 20:11 51.55749 14.24362 33459 ft 440 kts 173°
2026-05-06 20:12 51.52740 14.25036 33005 ft 435 kts 169°
2026-05-06 20:12 51.49810 14.26191 32542 ft 430 kts 163°
2026-05-06 20:12 51.46978 14.27528 32044 ft 427 kts 163°
2026-05-06 20:12 51.44153 14.28825 31545 ft 423 kts 164°
2026-05-06 20:13 51.41325 14.30091 31043 ft 420 kts 164°
2026-05-06 20:13 51.38544 14.31339 30545 ft 417 kts 164°
2026-05-06 20:13 51.35775 14.32585 30046 ft 414 kts 164°
2026-05-06 20:13 51.33031 14.33819 29547 ft 411 kts 164°
2026-05-06 20:14 51.30265 14.35061 29040 ft 408 kts 164°
2026-05-06 20:14 51.27583 14.36265 28546 ft 405 kts 164°
2026-05-06 20:14 51.24879 14.37478 28044 ft 402 kts 164°
2026-05-06 20:14 51.22184 14.38686 27540 ft 400 kts 164°
2026-05-06 20:15 51.19517 14.39880 27039 ft 397 kts 164°
2026-05-06 20:15 51.16883 14.41060 26515 ft 396 kts 164°
2026-05-06 20:15 51.14236 14.42244 25862 ft 398 kts 164°
2026-05-06 20:15 51.11560 14.43267 25209 ft 399 kts 171°
2026-05-06 20:16 51.08815 14.43584 24568 ft 400 kts 178°
2026-05-06 20:16 51.06010 14.43739 23910 ft 401 kts 177°
2026-05-06 20:16 51.03258 14.44008 23265 ft 402 kts 175°
2026-05-06 20:16 51.00449 14.44332 22607 ft 403 kts 175°
2026-05-06 20:17 50.97670 14.44651 21958 ft 403 kts 175°
2026-05-06 20:17 50.94876 14.44979 21305 ft 404 kts 175°
2026-05-06 20:17 50.92087 14.45319 20654 ft 404 kts 175°
2026-05-06 20:17 50.89311 14.45664 20006 ft 404 kts 175°
2026-05-06 20:18 50.86526 14.46012 19355 ft 403 kts 175°
2026-05-06 20:18 50.83754 14.46361 18707 ft 403 kts 175°
2026-05-06 20:18 50.80974 14.46713 18055 ft 402 kts 175°
2026-05-06 20:18 50.78201 14.46788 17397 ft 401 kts 186°
2026-05-06 20:19 50.75539 14.45662 16741 ft 399 kts 204°
2026-05-06 20:19 50.73163 14.43403 16032 ft 400 kts 214°
2026-05-06 20:19 50.70909 14.40897 15336 ft 400 kts 214°
2026-05-06 20:19 50.68632 14.38439 14610 ft 388 kts 214°
2026-05-06 20:20 50.66468 14.36120 13915 ft 372 kts 214°
2026-05-06 20:20 50.64377 14.33874 13215 ft 359 kts 214°
2026-05-06 20:20 50.62252 14.32007 12511 ft 347 kts 200°
2026-05-06 20:20 50.59930 14.31251 11813 ft 336 kts 184°
2026-05-06 20:21 50.57647 14.31027 11119 ft 328 kts 183°
2026-05-06 20:21 50.55389 14.30772 10412 ft 321 kts 184°
2026-05-06 20:21 50.53218 14.30515 9962 ft 306 kts 184°
2026-05-06 20:21 50.51184 14.30278 9844 ft 283 kts 184°
2026-05-06 20:22 50.49282 14.30057 9586 ft 269 kts 184°
2026-05-06 20:22 50.47463 14.29845 9333 ft 254 kts 184°
2026-05-06 20:22 50.45743 14.29646 9084 ft 248 kts 184°
2026-05-06 20:22 50.44036 14.29448 8992 ft 248 kts 184°
2026-05-06 20:23 50.42285 14.29244 9004 ft 253 kts 184°
2026-05-06 20:23 50.40534 14.29041 8996 ft 252 kts 184°
2026-05-06 20:23 50.38796 14.28840 8998 ft 251 kts 184°
2026-05-06 20:23 50.37053 14.28639 8998 ft 250 kts 184°
2026-05-06 20:24 50.35361 14.28408 8995 ft 237 kts 190°
2026-05-06 20:24 50.33929 14.27449 9000 ft 224 kts 221°
2026-05-06 20:24 50.33054 14.25436 9001 ft 228 kts 254°
2026-05-06 20:24 50.33009 14.22955 9004 ft 229 kts 282°
2026-05-06 20:25 50.33411 14.20522 8856 ft 247 kts 284°
2026-05-06 20:25 50.33856 14.17775 8586 ft 266 kts 284°
2026-05-06 20:25 50.34314 14.14928 8426 ft 267 kts 284°
2026-05-06 20:25 50.34759 14.12165 8289 ft 261 kts 284°
2026-05-06 20:26 50.35214 14.09343 8125 ft 270 kts 284°
2026-05-06 20:26 50.35667 14.06528 7924 ft 270 kts 284°
2026-05-06 20:26 50.36128 14.03661 7720 ft 268 kts 284°
2026-05-06 20:26 50.36582 14.00839 7520 ft 267 kts 284°
2026-05-06 20:27 50.36904 13.97982 7312 ft 266 kts 270°
2026-05-06 20:27 50.36511 13.95187 7108 ft 265 kts 243°
2026-05-06 20:27 50.35336 13.93035 6994 ft 262 kts 214°
2026-05-06 20:27 50.33647 13.91985 7000 ft 264 kts 187°
2026-05-06 20:28 50.31836 13.92263 6792 ft 268 kts 160°
2026-05-06 20:28 50.30154 13.93482 6477 ft 266 kts 153°
2026-05-06 20:28 50.28481 13.94767 5920 ft 274 kts 154°
2026-05-06 20:28 50.26744 13.96082 5237 ft 279 kts 154°
2026-05-06 20:29 50.25015 13.97394 4546 ft 278 kts 154°
2026-05-06 20:29 50.23322 13.98708 4199 ft 263 kts 149°
2026-05-06 20:29 50.22048 14.00519 4203 ft 236 kts 122°
2026-05-06 20:29 50.21298 14.02613 4213 ft 211 kts 123°
2026-05-06 20:30 50.20482 14.04385 4213 ft 188 kts 126°
2026-05-06 20:30 50.18934 14.07499 2376 ft 240 kts 145°
2026-05-06 20:30 50.18706 14.07822 894 ft 0 kts 52°